Location: Unspecified
(0.0000°N, 0.0000°E)
Time: 08:45:23
(UTC+02:00)

ARIANE 5 R/B - Visible Passes

Search period start: 30 March 2017 00:00
Search period end: 09 April 2017 00:00
Orbit: 642 x 38459 km, 7.2° (Epoch: 28 March)

Date Brightness Start Highest point End Pass type
(mag) Time Alt. Az. Time Alt. Az. Time Alt. Az.
30 Mar 7.5 20:14:49 10° WNW 20:30:49 76° N 07:16:37 10° E visible
31 Mar 6.9 19:17:12 10° WNW 19:27:53 71° N 06:17:35 10° E visible
01 Apr 7.9 18:19:49 10° WNW 03:28:20 71° ESE 05:17:25 10° E visible
02 Apr 7.0 17:22:33 10° WNW 02:30:20 56° ESE 04:15:28 10° E visible
03 Apr 9.5 22:44:07 25° E 01:32:07 41° E 03:10:17 10° E visible
04 Apr 9.7 21:53:46 12° E 00:34:48 26° E 01:58:07 10° E visible
05 Apr 10.1 22:47:01 10° E 23:38:34 12° E 00:17:52 10° E visible
06 Apr 9.9 03:30:23 10° W 04:29:43 16° W 06:03:46 10° W visible
07 Apr 9.6 02:05:11 10° W 03:32:54 30° W 05:43:04 20° W visible
08 Apr 9.3 00:55:55 10° W 02:34:50 45° W 07:40:20 10° W visible
